EN

Hourly Weather Oksford

Today, 19 June, Saturday

Time Temperature Precipitation Wind Pressure Humidity
00:00 +10°C° 0 mm 3 mps 755 mmHg 97%
01:00 +10°C° 0 mm 2 mps 755 mmHg 97%
02:00 +10°C° 0 mm 2 mps 755 mmHg 97%
03:00 +10°C° 0 mm 2 mps 755 mmHg 97%
04:00 +10°C° 0 mm 2 mps 756 mmHg 96%
05:00 +12°C° 0 mm 2 mps 756 mmHg 95%
06:00 +12°C° 0 mm 2 mps 756 mmHg 94%
07:00 +13°C° 0 mm 2 mps 756 mmHg 92%
08:00 +14°C° 0 mm 2 mps 756 mmHg 90%
09:00 +14°C° 0 mm 2 mps 756 mmHg 87%
10:00 +15°C° 0 mm 2 mps 755 mmHg 86%
11:00 +14°C° 0 mm 3 mps 755 mmHg 85%
12:00 +14°C° 0 mm 3 mps 755 mmHg 84%
13:00 +16°C° 0 mm 3 mps 755 mmHg 83%
14:00 +16°C° 0 mm 3 mps 754 mmHg 82%
15:00 +17°C° 0 mm 4 mps 754 mmHg 81%
16:00 +17°C° 0 mm 3 mps 753 mmHg 82%
17:00 +17°C° 0 mm 3 mps 753 mmHg 84%
18:00 +17°C° 0 mm 3 mps 752 mmHg 86%
19:00 +16°C° 0 mm 3 mps 752 mmHg 89%
20:00 +14°C° 0 mm 4 mps 752 mmHg 91%
21:00 +13°C° 0 mm 4 mps 752 mmHg 94%
22:00 +13°C° 0.2 mm 3 mps 752 mmHg 96%
23:00 +13°C° 0.2 mm 3 mps 751 mmHg 97%

Tomorrow, 20 June, Sunday

Time Temperature Precipitation Wind Pressure Humidity
00:00 +12°C° 0.2 mm 3 mps 751 mmHg 98%
01:00 +12°C° 0.2 mm 3 mps 751 mmHg 98%
02:00 +12°C° 0.2 mm 3 mps 750 mmHg 98%
03:00 +12°C° 0.2 mm 4 mps 750 mmHg 98%
04:00 +12°C° 0.2 mm 3 mps 750 mmHg 98%
05:00 +13°C° 0.2 mm 3 mps 750 mmHg 98%
06:00 +13°C° 0.2 mm 3 mps 750 mmHg 98%
07:00 +13°C° 0.1 mm 3 mps 750 mmHg 98%
08:00 +14°C° 0.1 mm 3 mps 750 mmHg 98%
09:00 +14°C° 0.1 mm 3 mps 750 mmHg 97%
10:00 +16°C° 0.3 mm 3 mps 750 mmHg 95%
11:00 +17°C° 0.3 mm 3 mps 750 mmHg 92%
12:00 +17°C° 0.3 mm 3 mps 750 mmHg 90%
13:00 +18°C° 0.6 mm 2 mps 750 mmHg 87%
14:00 +19°C° 0.6 mm 2 mps 750 mmHg 85%
15:00 +19°C° 0.6 mm 2 mps 750 mmHg 82%
16:00 +19°C° 0.5 mm 3 mps 750 mmHg 84%
17:00 +18°C° 0.5 mm 3 mps 750 mmHg 86%
18:00 +18°C° 0.5 mm 4 mps 750 mmHg 88%
19:00 +17°C° 0.1 mm 4 mps 750 mmHg 91%
20:00 +15°C° 0.1 mm 4 mps 750 mmHg 94%
21:00 +14°C° 0.1 mm 5 mps 751 mmHg 97%
22:00 +14°C° 0 mm 5 mps 751 mmHg 96%
23:00 +13°C° 0 mm 5 mps 751 mmHg 96%

Day after tomorrow, 21 June, Monday

Time Temperature Precipitation Wind Pressure Humidity
00:00 +13°C° 0 mm 5 mps 751 mmHg 96%
01:00 +13°C° 0 mm 5 mps 751 mmHg 96%
02:00 +13°C° 0 mm 5 mps 751 mmHg 96%
03:00 +12°C° 0 mm 5 mps 751 mmHg 96%
04:00 +12°C° 0 mm 5 mps 751 mmHg 95%
05:00 +11°C° 0 mm 6 mps 751 mmHg 95%
06:00 +10°C° 0 mm 6 mps 751 mmHg 95%
07:00 +10°C° 1.1 mm 6 mps 751 mmHg 95%
08:00 +10°C° 1.1 mm 6 mps 751 mmHg 95%
09:00 +10°C° 1.1 mm 6 mps 751 mmHg 95%
10:00 +10°C° 2.8 mm 6 mps 751 mmHg 95%
11:00 +11°C° 2.8 mm 7 mps 752 mmHg 96%
12:00 +11°C° 2.8 mm 7 mps 752 mmHg 96%
13:00 +11°C° 2.4 mm 7 mps 752 mmHg 96%
14:00 +11°C° 2.4 mm 7 mps 752 mmHg 96%
15:00 +10°C° 2.4 mm 7 mps 753 mmHg 96%
16:00 +10°C° 0.7 mm 7 mps 753 mmHg 96%
17:00 +10°C° 0.7 mm 7 mps 753 mmHg 96%
18:00 +10°C° 0.7 mm 7 mps 754 mmHg 95%
19:00 +10°C° 0.2 mm 7 mps 754 mmHg 95%
20:00 +10°C° 0.2 mm 7 mps 754 mmHg 95%
21:00 +10°C° 0.2 mm 7 mps 755 mmHg 95%
22:00 +10°C° 0.1 mm 7 mps 755 mmHg 95%
23:00 +10°C° 0.1 mm 7 mps 755 mmHg 94%

22 June, Tuesday

Time Temperature Precipitation Wind Pressure Humidity
00:00 +10°C° 0.1 mm 7 mps 755 mmHg 94%
01:00 +10°C° 0.2 mm 7 mps 756 mmHg 95%
02:00 +10°C° 0.2 mm 6 mps 756 mmHg 95%
03:00 +10°C° 0.2 mm 6 mps 756 mmHg 96%
04:00 +10°C° 0.4 mm 7 mps 756 mmHg 96%
05:00 +9°C° 0.4 mm 7 mps 757 mmHg 96%
06:00 +9°C° 0.4 mm 7 mps 757 mmHg 96%
07:00 +9°C° 0.1 mm 7 mps 757 mmHg 95%
08:00 +9°C° 0.1 mm 7 mps 758 mmHg 94%
09:00 +9°C° 0.1 mm 6 mps 758 mmHg 93%
10:00 +10°C° 0.1 mm 6 mps 758 mmHg 92%
11:00 +10°C° 0.1 mm 6 mps 758 mmHg 90%
12:00 +11°C° 0.1 mm 6 mps 759 mmHg 89%
13:00 +11°C° 0.1 mm 6 mps 759 mmHg 88%
14:00 +11°C° 0.1 mm 6 mps 759 mmHg 87%
15:00 +12°C° 0.1 mm 5 mps 759 mmHg 85%
16:00 +12°C° 0 mm 5 mps 759 mmHg 84%
17:00 +11°C° 0 mm 6 mps 759 mmHg 83%
18:00 +11°C° 0 mm 6 mps 760 mmHg 82%
19:00 +12°C° 0 mm 5 mps 760 mmHg 82%
20:00 +10°C° 0 mm 5 mps 760 mmHg 81%
21:00 +10°C° 0 mm 5 mps 760 mmHg 80%
22:00 +10°C° 0 mm 5 mps 760 mmHg 81%
23:00 +10°C° 0 mm 5 mps 761 mmHg 82%

23 June, Wednesday

Time Temperature Precipitation Wind Pressure Humidity
00:00 +9°C° 0 mm 5 mps 761 mmHg 84%
01:00 +10°C° 0 mm 4 mps 761 mmHg 85%
02:00 +10°C° 0 mm 4 mps 761 mmHg 87%
03:00 +8°C° 0 mm 4 mps 761 mmHg 89%
04:00 +10°C° 0 mm 4 mps 761 mmHg 89%
05:00 +10°C° 0 mm 4 mps 761 mmHg 88%
06:00 +10°C° 0 mm 4 mps 761 mmHg 88%
07:00 +11°C° 0 mm 4 mps 761 mmHg 83%
08:00 +13°C° 0 mm 5 mps 761 mmHg 78%
09:00 +14°C° 0 mm 5 mps 761 mmHg 73%
10:00 +15°C° 0 mm 5 mps 761 mmHg 70%
11:00 +16°C° 0 mm 5 mps 761 mmHg 67%
12:00 +17°C° 0 mm 5 mps 760 mmHg 64%
13:00 +18°C° 0 mm 4 mps 760 mmHg 63%
14:00 +18°C° 0 mm 4 mps 760 mmHg 63%
15:00 +19°C° 0 mm 4 mps 760 mmHg 62%
16:00 +18°C° 0 mm 3 mps 760 mmHg 66%
17:00 +18°C° 0 mm 3 mps 760 mmHg 70%
18:00 +18°C° 0 mm 3 mps 760 mmHg 74%
19:00 +16°C° 0 mm 3 mps 760 mmHg 78%
20:00 +14°C° 0 mm 2 mps 761 mmHg 83%
21:00 +12°C° 0 mm 2 mps 761 mmHg 88%
22:00 +10°C° 0 mm 2 mps 761 mmHg 87%
23:00 +10°C° 0 mm 1 mps 761 mmHg 87%

24 June, Thursday

Time Temperature Precipitation Wind Pressure Humidity
00:00 +9°C° 0 mm 0 mps 761 mmHg 86%
01:00 +9°C° 0 mm 0 mps 761 mmHg 86%
02:00 +9°C° 0 mm 1 mps 761 mmHg 86%
03:00 +9°C° 0 mm 1 mps 760 mmHg 85%
04:00 +10°C° 0 mm 1 mps 760 mmHg 84%
05:00 +11°C° 0 mm 1 mps 760 mmHg 83%
06:00 +11°C° 0 mm 0 mps 760 mmHg 82%
07:00 +13°C° 0 mm 0 mps 760 mmHg 77%
08:00 +14°C° 0 mm 0 mps 760 mmHg 73%
09:00 +16°C° 0 mm 0 mps 760 mmHg 68%
10:00 +19°C° 0 mm 1 mps 760 mmHg 65%
11:00 +20°C° 0 mm 1 mps 759 mmHg 63%
12:00 +20°C° 0 mm 2 mps 759 mmHg 60%
13:00 +20°C° 0 mm 2 mps 759 mmHg 59%
14:00 +21°C° 0 mm 2 mps 758 mmHg 59%
15:00 +21°C° 0 mm 3 mps 758 mmHg 58%
16:00 +20°C° 0 mm 3 mps 758 mmHg 63%
17:00 +20°C° 0 mm 3 mps 757 mmHg 68%
18:00 +19°C° 0 mm 3 mps 757 mmHg 74%
19:00 +17°C° 0 mm 3 mps 757 mmHg 79%
20:00 +16°C° 0 mm 3 mps 758 mmHg 85%
21:00 +14°C° 0 mm 2 mps 758 mmHg 91%
22:00 +13°C° 0 mm 2 mps 758 mmHg 90%
23:00 +12°C° 0 mm 2 mps 758 mmHg 89%
Show more